User: anonymous   Login
Location: Brno
(49.2000°N, 16.6330°E)
Time: 16:53:59
(UTC+01:00)
Language:

Meteor 1-4 Rocket - Orbit

View from above orbital plane
View from above orbital plane
View from above satellite
View from above satellite

Ground track
Ground track

The orbit data is extracted from the following two-line orbital elements,

1 04394U 70037B   17020.21019480  .00001060  00000-0  37228-4 0  9995
2 04394  81.2417 188.5202 0040252 269.1635  90.4988 15.27665575542172
Epoch (UTC): 20 January 2017 05:02:40
Eccentricity: 0.0040252
inclination: 81.2417°
perigee height: 455 km
apogee height: 510 km
right ascension of ascending node: 188.5202°
argument of perigee: 269.1635°
revolutions per day: 15.27665575
mean anomaly at epoch: 90.4988°
orbit number at epoch: 54217

The dashed part of the orbit path shows where the satellite is in the earth's shadow,  

DLR